sat.trackr.live / text

‹ back to catalog

STARLINK-11583 [DTC]

NORAD 62991 · 2025-031L

PAYLOAD ACTIVE UNKNOWN

§ Identity

Operator
Country
US
Launch date
2025-02-11
Launch site
AFETR
Launch vehicle
Mass (kg)
RCS (m²)

Purposes: comms

External: N2YO · Heavens-Above · Gunter

§ Orbital elements

Epoch: 2026-09-21T08:39:56.033280Z

Period
91.67 min
Inclination
43.0012°
Eccentricity
0.0002098
Mean motion
15.70866691 rev/d
Perigee alt
355.0 km
Apogee alt
357.8 km
Semi-major
6,734.6 km
B*
6.7895e-4
RAAN
262.2661°
Arg perigee
254.9925°
Mean anomaly
105.0711°
Rev number
9,352

§ Raw data

STARLINK-11583 [DTC]1 62991U 25031L   26264.36106520  .00087696  00000+0  67895-3 0  99942 62991  43.0012 262.2661 0002098 254.9925 105.0711 15.70866691 93522

JSON: /api/v1/satellites/62991 · /tle

For live sub-satellite position, see the globe view (requires WebGL).

§ Visibility from observer

Set your observer location to see the next 7 days of passes ≥ 10°. The values pass through the URL so the page stays shareable.

No JS? Fill the form by hand. The geolocation button needs JavaScript.